Simultaneous Nadir Overpasses (SNOs) Predictions

Prediction of SNOs between GOES-16 and LANDSAT-8 Satellite Orbit:

Table of predicted SNOs for the next 14.0 days since TLE Epoch: 9/9/2023
Index Date Time (GOES-16) GOES-16 Lat,Lon LANDSAT-8 Lat,Lon Distance(km) Time Diff (sec)
1 09/09/2023 15:03:05 -0.04, -75.23 -0.66, -72.45 316.66 80
2 09/10/2023 03:21:49 0.05, -75.21 -0.48, -77.63 275.67 80
3 09/12/2023 03:12:19 0.05, -75.22 0.14, -74.68 61.65 80
4 09/14/2023 03:00:09 0.04, -75.24 0.79, -71.72 399.82 80
5 09/14/2023 15:21:25 -0.04, -75.27 0.30, -76.88 183.79 80
6 09/16/2023 15:06:35 -0.04, -75.30 -0.36, -73.94 155.44 80
7 09/17/2023 03:30:39 0.04, -75.29 -0.76, -79.12 436.12 80
8 09/18/2023 14:54:24 -0.04, -75.33 -0.98, -70.98 495.07 80
9 09/19/2023 03:18:28 0.04, -75.32 -0.14, -76.16 96.36 80
10 09/21/2023 03:03:37 0.04, -75.35 0.51, -73.21 243.61 80
11 09/21/2023 15:24:52 -0.04, -75.38 0.63, -78.36 339.74 80
